EW4131 Weather Reports


Display with metric or nautical units.
time (UTC)temp
F
wind
direction
speed
MPH
gust
MPH
rain 1hr
in
rain 24hr
in
rain mn
in
humidity
%
barometer
mb
20200706170611 75 155 1.0 2.0 0.00 0.00 0.00 41 976.2
20200706170111 74 142 0.0 3.0 0.00 0.00 0.00 37 976.2
20200706165610 73 221 0.0 3.0 0.00 0.00 0.00 38 976.2
20200706165111 73 145 0.0 1.0 0.00 0.00 0.00 42 976.3
20200706164610 72 157 0.0 1.0 0.00 0.00 0.00 40 976.3
20200706164112 71 158 0.0 1.0 0.00 0.00 0.00 44 976.3
20200706163611 69 219 0.0 2.0 0.00 0.00 0.00 44 976.3
20200706163109 68 253 0.0 2.0 0.00 0.00 0.00 44 976.4
20200706162609 68 259 0.0 1.0 0.00 0.00 0.00 46 976.4
20200706162100 68 254 0.0 1.0 0.00 0.00 0.00 47 976.3
20200706161557 68 253 0.0 1.0 0.00 0.00 0.00 50 976.4
20200706161057 67 254 0.0 1.0 0.00 0.00 0.00 49 976.4
20200706160555 66 256 0.0 1.0 0.00 0.00 0.00 47 976.4
20200706160055 66 256 0.0 1.0 0.00 0.00 0.00 48 976.6
20200706155550 65 246 0.0 1.0 0.00 0.00 0.00 57 976.6
20200706155049 64 247 0.0 1.0 0.00 0.00 0.00 55 976.6
20200706154550 63 277 0.0 1.0 0.00 0.00 0.00 56 976.6
20200706154049 63 277 0.0 1.0 0.00 0.00 0.00 58 976.6
20200706153551 63 290 0.0 1.0 0.00 0.00 0.00 60 976.6
20200706153051 63 290 0.0 0.0 0.00 0.00 0.00 63 976.6
20200706152551 62 290 0.0 0.0 0.00 0.00 0.00 67 976.6
20200706152043 60 290 0.0 0.0 0.00 0.00 0.00 64 976.6
20200706151544 59 290 0.0 0.0 0.00 0.00 0.00 67 976.7
20200706151045 58 290 0.0 1.0 0.00 0.00 0.00 66 976.8
20200706150546 57 290 0.0 1.0 0.00 0.00 0.00 67 976.8
20200706150044 57 43 0.0 0.0 0.00 0.00 0.00 69 976.7
20200706145545 56 43 0.0 0.0 0.00 0.00 0.00 74 976.7
20200706145039 54 43 0.0 0.0 0.00 0.00 0.00 74 976.7
20200706144538 53 43 0.0 0.0 0.00 0.00 0.00 76 976.7
20200706144039 51 43 0.0 0.0 0.00 0.00 0.00 83 976.7
20200706143537 51 43 0.0 0.0 0.00 0.00 0.00 82 976.7
20200706143035 50 43 0.0 0.0 0.00 0.00 0.00 82 976.8
20200706142534 50 43 0.0 0.0 0.00 0.00 0.00 82 976.8
20200706142030 50 43 0.0 0.0 0.00 0.00 0.00 81 976.7
20200706141531 49 43 0.0 0.0 0.00 0.00 0.00 82 976.7
20200706141031 49 43 0.0 0.0 0.00 0.00 0.00 81 976.7
20200706140530 49 43 0.0 0.0 0.00 0.00 0.00 82 976.7
20200706140029 48 43 0.0 0.0 0.00 0.00 0.00 84 976.7
20200706135528 47 43 0.0 0.0 0.00 0.00 0.00 86 976.7
20200706135022 46 43 0.0 0.0 0.00 0.00 0.00 86 976.7
20200706134521 46 43 0.0 0.0 0.00 0.00 0.00 86 976.7
20200706134019 46 43 0.0 0.0 0.00 0.00 0.00 87 976.8
20200706133517 46 43 0.0 0.0 0.00 0.00 0.00 87 976.8
20200706133017 45 43 0.0 0.0 0.00 0.00 0.00 87 976.8
20200706132510 45 43 0.0 0.0 0.00 0.00 0.00 87 976.7
20200706132009 45 43 0.0 0.0 0.00 0.00 0.00 86 976.7
20200706131507 45 43 0.0 0.0 0.00 0.00 0.00 86 976.7
20200706131005 45 43 0.0 0.0 0.00 0.00 0.00 86 976.7
20200706130504 44 43 0.0 0.0 0.00 0.00 0.00 86 976.6
20200706125958 44 43 0.0 0.0 0.00 0.00 0.00 86 976.6
20200706125456 44 43 0.0 0.0 0.00 0.00 0.00 86 976.6
20200706124954 44 43 0.0 0.0 0.00 0.00 0.00 86 976.6
20200706124453 44 43 0.0 0.0 0.00 0.00 0.00 86 976.6
20200706123952 44 43 0.0 0.0 0.00 0.00 0.00 86 976.6
20200706123450 44 43 0.0 0.0 0.00 0.00 0.00 86 976.6
20200706122949 44 43 0.0 0.0 0.00 0.00 0.00 85 976.6
20200706122448 44 43 0.0 0.0 0.00 0.00 0.00 85 976.6
20200706121948 44 43 0.0 0.0 0.00 0.00 0.00 85 976.4
20200706121447 44 43 0.0 0.0 0.00 0.00 0.00 85 976.4
20200706120947 44 43 0.0 0.0 0.00 0.00 0.00 85 976.4
20200706120443 44 43 0.0 0.0 0.00 0.00 0.00 85 976.4
20200706115941 44 43 0.0 0.0 0.00 0.00 0.00 85 976.4
20200706115442 44 43 0.0 0.0 0.00 0.00 0.00 85 976.3
20200706114942 44 43 0.0 0.0 0.00 0.00 0.00 85 976.3
20200706114440 44 43 0.0 0.0 0.00 0.00 0.00 84 976.4
20200706113940 44 43 0.0 0.0 0.00 0.00 0.00 84 976.3
20200706113434 44 43 0.0 0.0 0.00 0.00 0.00 84 976.3
20200706112934 45 43 0.0 0.0 0.00 0.00 0.00 84 976.2
20200706112436 45 43 0.0 0.0 0.00 0.00 0.00 83 976.3
20200706111936 45 43 0.0 1.0 0.00 0.00 0.00 83 976.2
20200706111434 45 43 0.0 1.0 0.00 0.00 0.00 83 976.2
20200706110934 45 43 0.0 1.0 0.00 0.00 0.00 83 976.0
20200706110432 45 43 0.0 1.0 0.00 0.00 0.00 83 976.0
20200706105930 45 43 0.0 0.0 0.00 0.00 0.00 83 976.0
20200706105431 45 43 0.0 0.0 0.00 0.00 0.00 83 976.0
20200706104930 45 43 0.0 0.0 0.00 0.00 0.00 83 976.2
20200706104430 45 43 0.0 0.0 0.00 0.00 0.00 83 976.0
20200706103930 45 43 0.0 0.0 0.00 0.00 0.00 82 976.0
20200706103425 45 43 0.0 0.0 0.00 0.00 0.00 82 976.0
20200706102923 46 43 0.0 0.0 0.00 0.00 0.00 82 975.9
20200706102421 46 43 0.0 0.0 0.00 0.00 0.00 81 975.9
20200706101922 46 43 0.0 0.0 0.00 0.00 0.00 81 976.0
20200706101420 46 43 0.0 0.0 0.00 0.00 0.00 81 975.9
20200706100923 46 43 0.0 0.0 0.00 0.00 0.00 82 976.0
20200706100414 46 43 0.0 0.0 0.00 0.00 0.00 81 975.9
20200706095915 46 43 0.0 0.0 0.00 0.00 0.00 82 975.9
20200706095414 46 43 0.0 0.0 0.00 0.00 0.00 81 975.9
20200706094912 46 43 0.0 0.0 0.00 0.00 0.00 81 976.0
20200706094412 46 43 0.0 0.0 0.00 0.00 0.00 81 976.0
20200706093909 46 43 0.0 0.0 0.00 0.00 0.00 81 976.0
20200706093408 46 43 0.0 0.0 0.00 0.00 0.00 81 976.0
20200706092908 46 43 0.0 0.0 0.00 0.00 0.00 81 976.0
20200706092408 46 43 0.0 0.0 0.00 0.00 0.00 82 976.0
20200706091910 46 43 0.0 0.0 0.00 0.00 0.00 81 976.0
20200706091409 46 43 0.0 0.0 0.00 0.00 0.00 80 976.0
20200706090906 46 43 0.0 0.0 0.00 0.00 0.00 80 976.0
20200706090408 46 43 0.0 0.0 0.00 0.00 0.00 80 976.0
20200706085902 46 43 0.0 0.0 0.00 0.00 0.00 79 976.0
20200706085402 47 43 0.0 0.0 0.00 0.00 0.00 79 975.9
20200706084904 47 43 0.0 0.0 0.00 0.00 0.00 79 975.9
20200706084404 47 43 0.0 0.0 0.00 0.00 0.00 78 975.9
20200706083903 47 43 0.0 0.0 0.00 0.00 0.00 78 975.8
20200706083404 47 43 0.0 0.0 0.00 0.00 0.00 78 975.9
20200706082859 47 43 0.0 0.0 0.00 0.00 0.00 78 975.9
20200706082358 47 43 0.0 0.0 0.00 0.00 0.00 77 975.9
20200706081903 47 43 0.0 0.0 0.00 0.00 0.00 77 976.0
20200706081400 47 43 0.0 0.0 0.00 0.00 0.00 77 975.9
20200706080900 48 43 0.0 0.0 0.00 0.00 0.00 77 975.9
20200706080400 48 43 0.0 0.0 0.00 0.00 0.00 77 976.0
20200706075900 48 43 0.0 0.0 0.00 0.00 0.00 77 976.0
20200706075358 48 43 0.0 0.0 0.00 0.00 0.00 76 976.0
20200706074851 48 43 0.0 0.0 0.00 0.00 0.00 76 976.0
20200706074350 48 43 0.0 0.0 0.00 0.00 0.00 75 976.0
20200706073848 49 43 0.0 0.0 0.00 0.00 0.00 75 976.0
20200706073345 49 43 0.0 0.0 0.00 0.00 0.00 75 976.0
20200706072845 49 43 0.0 0.0 0.00 0.00 0.00 75 975.9
20200706072344 49 43 0.0 0.0 0.00 0.00 0.00 74 975.9
20200706071842 49 43 0.0 0.0 0.00 0.00 0.00 74 976.0
20200706071342 49 43 0.0 0.0 0.00 0.00 0.00 74 976.0
20200706070841 49 43 0.0 0.0 0.00 0.00 0.00 74 976.0
20200706070339 50 43 0.0 0.0 0.00 0.00 0.00 73 976.2
20200706065838 50 43 0.0 0.0 0.00 0.00 0.00 73 976.2
20200706065331 50 43 0.0 0.0 0.00 0.00 0.00 72 976.2
20200706064830 50 43 0.0 0.0 0.00 0.00 0.00 71 976.2
20200706064328 51 43 0.0 0.0 0.00 0.00 0.00 72 976.2
20200706063827 51 43 0.0 1.0 0.00 0.00 0.00 71 976.2
20200706063326 51 43 0.0 1.0 0.00 0.00 0.00 71 976.3
20200706062825 51 43 0.0 1.0 0.00 0.00 0.00 71 976.3
20200706062320 51 43 0.0 1.0 0.00 0.00 0.00 70 976.4
20200706061817 51 43 0.0 1.0 0.00 0.00 0.00 71 976.3
20200706061316 52 43 0.0 0.0 0.00 0.00 0.00 68 976.3
20200706060813 52 43 0.0 0.0 0.00 0.00 0.00 68 976.3
20200706060313 52 43 0.0 0.0 0.00 0.00 0.00 68 976.3
20200706055810 53 43 0.0 0.0 0.00 0.00 0.00 66 976.3
20200706055309 53 43 0.0 0.0 0.00 0.00 0.00 68 976.2
20200706054809 53 43 0.0 1.0 0.00 0.00 0.00 68 976.2
20200706054304 53 43 0.0 1.0 0.00 0.00 0.00 67 976.2
20200706053803 54 43 0.0 0.0 0.00 0.00 0.00 68 976.3
20200706053303 54 43 0.0 0.0 0.00 0.00 0.00 66 976.3
20200706052803 54 43 0.0 0.0 0.00 0.00 0.00 66 976.3
20200706052259 54 43 0.0 0.0 0.00 0.00 0.00 67 976.2
20200706051757 54 43 0.0 1.0 0.00 0.00 0.00 66 976.2
20200706051259 55 43 0.0 1.0 0.00 0.00 0.00 65 976.2
20200706050758 55 43 0.0 1.0 0.00 0.00 0.00 64 976.2
20200706050257 55 43 0.0 1.0 0.00 0.00 0.00 63 976.2
20200706045756 55 43 0.0 1.0 0.00 0.00 0.00 62 976.0
20200706045254 55 43 0.0 0.0 0.00 0.00 0.00 62 976.0
20200706044756 55 43 0.0 1.0 0.00 0.00 0.00 62 976.0
20200706044251 56 43 0.0 1.0 0.00 0.00 0.00 62 976.0
20200706043751 56 43 0.0 0.0 0.00 0.00 0.00 60 976.0
20200706043253 56 43 0.0 0.0 0.00 0.00 0.00 60 975.9
20200706042752 56 43 0.0 1.0 0.00 0.00 0.00 61 975.9
20200706042253 57 43 0.0 1.0 0.00 0.00 0.00 58 975.9
20200706041752 57 43 0.0 0.0 0.00 0.00 0.00 58 975.8
20200706041246 57 43 0.0 0.0 0.00 0.00 0.00 58 975.7
20200706040747 58 43 0.0 1.0 0.00 0.00 0.00 58 975.7
20200706040248 58 43 0.0 1.0 0.00 0.00 0.00 58 975.5
20200706035748 58 44 0.0 1.0 0.00 0.00 0.00 57 975.5
20200706035247 59 44 0.0 1.0 0.00 0.00 0.00 55 975.4
20200706034748 60 44 0.0 1.0 0.00 0.00 0.00 57 975.4
20200706034247 60 44 0.0 2.0 0.00 0.00 0.00 51 975.3
20200706033739 60 34 0.0 2.0 0.00 0.00 0.00 51 975.3
20200706033240 60 44 0.0 2.0 0.00 0.00 0.00 51 975.2
20200706032738 60 45 0.0 2.0 0.00 0.00 0.00 51 975.2
20200706032237 60 115 0.0 2.0 0.00 0.00 0.00 50 974.9
20200706031738 61 115 0.0 2.0 0.00 0.00 0.00 51 974.9
20200706031235 61 114 0.0 1.0 0.00 0.00 0.00 49 974.8
20200706030733 62 102 0.0 1.0 0.00 0.00 0.00 49 974.7
20200706030234 62 113 0.0 1.0 0.00 0.00 0.00 49 974.7
20200706025731 62 103 0.0 1.0 0.00 0.00 0.00 49 974.7
20200706025231 62 150 0.0 1.0 0.00 0.00 0.00 49 974.7
20200706024728 62 148 0.0 2.0 0.00 0.00 0.00 48 974.7
20200706024226 63 155 0.0 2.0 0.00 0.00 0.00 46 974.7
20200706023728 63 88 0.0 2.0 0.00 0.00 0.00 49 974.7
20200706023228 63 138 0.0 1.0 0.00 0.00 0.00 49 974.5
20200706022725 64 162 0.0 1.0 0.00 0.00 0.00 48 974.5
20200706022225 65 162 0.0 3.0 0.00 0.00 0.00 44 974.4
20200706021722 66 160 0.0 3.0 0.00 0.00 0.00 45 974.4
20200706021222 67 19 1.0 4.0 0.00 0.00 0.00 41 974.2
20200706020721 67 84 1.0 4.0 0.00 0.00 0.00 41 974.3
20200706020222 68 99 0.0 2.0 0.00 0.00 0.00 46 974.2
20200706015719 68 99 0.0 2.0 0.00 0.00 0.00 41 974.2
20200706015221 69 136 0.0 1.0 0.00 0.00 0.00 40 974.0
20200706014714 69 143 0.0 1.0 0.00 0.00 0.00 39 974.0
20200706014212 70 285 0.0 1.0 0.00 0.00 0.00 38 974.0
20200706013713 71 270 0.0 1.0 0.00 0.00 0.00 39 974.0
20200706013214 71 264 0.0 1.0 0.00 0.00 0.00 37 973.9
20200706012713 71 262 0.0 1.0 0.00 0.00 0.00 42 973.9
20200706012213 71 261 0.0 1.0 0.00 0.00 0.00 37 973.9
20200706011712 71 258 0.0 2.0 0.00 0.00 0.00 37 973.8
20200706011208 71 272 1.0 2.0 0.00 0.00 0.00 39 973.8
20200706010710 72 306 1.0 2.0 0.00 0.00 0.00 37 973.6
20200706010208 73 276 1.0 2.0 0.00 0.00 0.00 36 973.5
20200706005708 72 286 1.0 3.0 0.00 0.00 0.00 35 973.4
20200706005207 73 319 1.0 4.0 0.00 0.00 0.00 34 973.4
20200706004701 73 316 1.0 4.0 0.00 0.00 0.00 29 973.4
20200706004202 73 238 1.0 4.0 0.00 0.00 0.00 29 973.4
20200706003702 73 300 1.0 3.0 0.00 0.00 0.00 29 973.3
20200706003202 73 271 1.0 3.0 0.00 0.00 0.00 33 973.4
20200706002702 73 282 1.0 3.0 0.00 0.00 0.00 29 973.3
20200706002203 74 313 1.0 3.0 0.00 0.00 0.00 29 973.3
20200706001656 73 297 1.0 2.0 0.00 0.00 0.00 29 973.3
20200706001152 73 311 1.0 3.0 0.00 0.00 0.00 28 973.3
20200706000651 73 309 1.0 3.0 0.00 0.00 0.00 28 973.3
20200706000150 74 266 1.0 3.0 0.00 0.00 0.00 29 973.4
20200705235651 73 259 1.0 3.0 0.00 0.00 0.00 33 973.4
20200705235144 73 286 1.0 3.0 0.00 0.00 0.00 29 973.3
20200705234645 72 311 1.0 3.0 0.00 0.00 0.00 29 973.3
20200705234146 71 278 1.0 3.0 0.00 0.00 0.00 32 973.3
20200705233645 71 283 1.0 3.0 0.00 0.00 0.00 32 973.4
20200705233143 71 274 1.0 5.0 0.00 0.00 0.00 30 973.4
20200705232644 71 261 1.0 5.0 0.00 0.00 0.00 30 973.4
20200705232140 71 299 1.0 5.0 0.00 0.00 0.00 31 973.4
20200705231640 71 273 2.0 5.0 0.00 0.00 0.00 29 973.5
20200705231140 71 282 2.0 5.0 0.00 0.00 0.00 28 973.6
20200705230639 72 250 2.0 5.0 0.00 0.00 0.00 29 973.6
20200705230138 73 305 2.0 5.0 0.00 0.00 0.00 32 973.5
20200705225637 73 273 2.0 7.0 0.00 0.00 0.00 30 973.6
20200705225130 74 298 2.0 7.0 0.00 0.00 0.00 31 973.6
20200705224632 74 298 2.0 6.0 0.00 0.00 0.00 32 973.5
20200705224132 74 263 2.0 6.0 0.00 0.00 0.00 31 973.4
20200705223632 74 307 2.0 9.0 0.00 0.00 0.00 31 973.5
20200705223131 74 268 2.0 9.0 0.00 0.00 0.00 29 973.5
20200705222633 75 294 2.0 6.0 0.00 0.00 0.00 30 973.6
20200705222127 76 299 2.0 6.0 0.00 0.00 0.00 29 973.6
20200705221627 75 273 2.0 5.0 0.00 0.00 0.00 33 973.6
20200705221124 76 297 2.0 6.0 0.00 0.00 0.00 31 973.6
20200705220626 76 227 2.0 6.0 0.00 0.00 0.00 33 973.5
20200705220125 76 284 2.0 5.0 0.00 0.00 0.00 33 973.6
20200705215625 76 267 2.0 6.0 0.00 0.00 0.00 32 973.5
20200705215117 76 228 2.0 6.0 0.00 0.00 0.00 33 973.6
20200705214619 76 302 2.0 7.0 0.00 0.00 0.00 31 973.6
20200705214121 75 314 2.0 7.0 0.00 0.00 0.00 31 973.8
20200705213620 75 235 2.0 6.0 0.00 0.00 0.00 29 973.8
20200705213119 75 300 2.0 4.0 0.00 0.00 0.00 30 973.8
20200705212619 75 239 2.0 6.0 0.00 0.00 0.00 33 973.9
20200705212113 74 295 2.0 6.0 0.00 0.00 0.00 31 973.9
20200705211611 74 261 2.0 5.0 0.00 0.00 0.00 33 973.9
20200705211114 74 285 2.0 5.0 0.00 0.00 0.00 31 974.0
20200705210613 74 271 2.0 5.0 0.00 0.00 0.00 33 973.9
20200705210112 74 283 3.0 10.0 0.00 0.00 0.00 31 973.9
20200705205613 74 300 3.0 10.0 0.00 0.00 0.00 29 973.9
20200705205111 74 273 2.0 8.0 0.00 0.00 0.00 30 973.9
20200705204608 75 240 2.0 6.0 0.00 0.00 0.00 28 974.0
20200705204105 75 282 2.0 6.0 0.00 0.00 0.00 30 974.0
20200705203604 75 273 2.0 5.0 0.00 0.00 0.00 29 974.0
20200705203057 74 259 2.0 5.0 0.00 0.00 0.00 30 974.0
20200705202557 74 278 2.0 7.0 0.00 0.00 0.00 33 974.2
20200705202053 74 276 3.0 9.0 0.00 0.00 0.00 29 974.2
20200705201553 75 302 3.0 9.0 0.00 0.01 0.00 29 974.3
20200705201054 75 280 2.0 7.0 0.00 0.01 0.00 32 974.2
20200705200554 75 302 2.0 6.0 0.00 0.02 0.00 32 974.3
20200705200054 74 317 2.0 5.0 0.00 0.04 0.00 32 974.3
20200705195556 75 241 2.0 4.0 0.00 0.06 0.00 28 974.2
20200705195054 76 264 2.0 5.0 0.00 0.06 0.00 30 974.3
20200705194554 76 268 2.0 5.0 0.00 0.06 0.00 30 974.3
20200705194056 76 273 2.0 4.0 0.00 0.06 0.00 29 974.3
20200705193556 76 294 2.0 4.0 0.00 0.07 0.00 32 974.3
20200705193057 75 315 1.0 4.0 0.00 0.08 0.00 30 974.4
20200705192551 74 284 1.0 3.0 0.00 0.10 0.00 29 974.5
20200705192053 75 284 1.0 3.0 0.00 0.15 0.00 29 974.7
20200705191553 76 271 1.0 4.0 0.00 0.20 0.00 28 974.7
20200705191053 76 273 2.0 5.0 0.00 0.29 0.00 30 974.8
20200705190543 75 252 1.0 5.0 0.00 0.34 0.00 33 974.8
20200705190044 75 253 1.0 5.0 0.00 0.36 0.00 31 974.8
20200705185545 75 283 1.0 5.0 0.00 0.37 0.00 29 975.0
20200705185044 75 277 2.0 5.0 0.00 0.37 0.00 28 975.0
20200705184545 75 307 1.0 5.0 0.00 0.37 0.00 28 975.2
20200705184044 75 285 1.0 3.0 0.00 0.37 0.00 29 975.0
20200705183543 75 256 2.0 3.0 0.00 0.37 0.00 28 975.2
20200705183042 74 330 1.0 3.0 0.00 0.37 0.00 29 975.3
20200705182541 74 257 1.0 3.0 0.00 0.37 0.00 31 975.2
20200705182039 74 274 1.0 6.0 0.00 0.37 0.00 31 975.3
20200705181535 74 285 1.0 6.0 0.00 0.37 0.00 32 975.3
20200705181036 73 270 1.0 5.0 0.00 0.37 0.00 30 975.4
20200705180535 73 217 1.0 5.0 0.00 0.37 0.00 37 975.4
20200705180036 74 238 1.0 3.0 0.00 0.37 0.00 32 975.4
20200705175534 74 278 1.0 3.0 0.00 0.37 0.00 29 975.4
20200705175032 74 266 0.0 1.0 0.00 0.37 0.00 34 975.4
20200705174533 74 117 0.0 1.0 0.00 0.37 0.00 35 975.4
20200705174032 73 204 0.0 1.0 0.00 0.37 0.00 38 975.5
20200705173531 72 204 0.0 3.0 0.00 0.37 0.00 39 975.5
20200705173030 72 267 0.0 3.0 0.00 0.37 0.00 45 975.7
20200705172523 72 262 0.0 2.0 0.00 0.37 0.00 44 975.7
20200705172022 71 154 0.0 1.0 0.00 0.37 0.00 40 975.7
20200705171521 70 108 0.0 1.0 0.00 0.37 0.00 48 975.8
20200705171019 70 255 0.0 1.0 0.00 0.37 0.00 45 975.8